Regional Weather Roundup
Issued by NWS

Home | Current Version | Previous Version | Text Only | Print | Product List | Glossary On
Versions: 1 2 3 4 5 6 7 8 9 10 11 12 13 14 15 16 17 18 19 20 21 22 23 24 25 26 27 28 29 30 31 32 33 34 35 36 37 38 39 40 41 42 43 44 45 46 47 48 49 50
000
ASUS43 KDMX 261908
RWRIA

WEATHER ROUNDUP FOR IOWA
NATIONAL WEATHER SERVICE DES MOINES IA
200 PM CDT FRI AUG 26 2016

NOTE: "FAIR" INDICATES FEW OR NO CLOUDS BELOW 12,000 FEET WITH NO
SIGNIFICANT WEATHER AND/OR OBSTRUCTIONS TO VISIBILITY.

* - THESE STATIONS ARE NOT NWS STATIONS...THUS NOT UNDER NWS
QUALITY CONTROL.  THEY ALSO DO NOT REPORT WEATHER SUCH
AS PRECIPITATION OR FOG.

IAZ001>003-012>014-020>022-031>034-043>046-262000-
   NORTHWEST IOWA

CITY           SKY/WX    TMP DP  RH WIND       PRES   REMARKS
CARROLL *      CLOUDY    70  63  78 SE8       30.13F
CHEROKEE *     CLOUDY    70  62  74 E8        30.14S
DENISON *      CLOUDY    68  63  83 SE8       30.11S HAZE
LE MARS *      CLOUDY    72  61  68 SE7       30.14S
ORANGE CITY *  CLOUDY    70  61  73 E3        30.15S
SHELDON *      CLOUDY    70  61  73 MISG      30.14S
SIOUX CITY     CLOUDY    72  61  68 SE6       30.12F
SPENCER        CLOUDY    69  57  65 SE8       30.16F
STORM LAKE *   CLOUDY    68  61  77 E9        30.15F
$$

IAZ055>058-069>071-079>083-090>094-262000-
   SOUTHWEST IOWA

CITY           SKY/WX    TMP DP  RH WIND       PRES   REMARKS
ATLANTIC *     CLOUDY    68  61  77 E5        30.13S
AUDUBON *      LGT RAIN  66  63  88 CALM      30.15R
CLARINDA *       N/A     70  64  83 MISG      30.13F
COUNCIL BLFS * CLOUDY    66  63  88 E5        30.12F
CRESTON *      CLOUDY    68  64  88 E7        30.14R
HARLAN  *      CLOUDY    66  63  88 SE5       30.17S FOG
LAMONI         CLOUDY    73  64  73 E6        30.11R
RED OAK *      CLOUDY    70  61  73 SE6       30.12S
SHENANDOAH *   CLOUDY    68 -38   1 SE6       30.12S
$$

IAZ047>049-059>061-072>074-084-262000-
   CENTRAL IOWA

CITY           SKY/WX    TMP DP  RH WIND       PRES   REMARKS
AMES           PTSUNNY   71  65  81 VRB6      30.14F
ANKENY *         N/A    N/A N/A N/A MISG        N/A
BOONE *        CLOUDY    70  61  73 E10       30.14S
CHARITON *       N/A     75  64  69 MISG      30.11S
DES MOINES     CLOUDY    72  63  73 NE12      30.10F
GRINNELL*      CLOUDY    74  62  68 E6        30.15F
KNOXVILLE *    PTSUNNY   73  63  68 NE7G13    30.11F
MARSHALLTOWN   CLOUDY    69  62  78 SE6       30.16S
NEWTON *       CLOUDY    72  66  83 N8        30.13F
PERRY *        PTSUNNY   71  64  78 E7        30.13F
$$

IAZ004>006-015-016-023>025-035-036-262000-
   NORTH CENTRAL IOWA

CITY           SKY/WX    TMP DP  RH WIND       PRES   REMARKS
ALGONA *       CLOUDY    68  59  73 SE6       30.17S
ESTHERVILLE    CLOUDY    67  59  75 SE6       30.16F
FORT DODGE *   CLOUDY    70  59  68 SE7       30.16F
MASON CITY     CLOUDY    69  57  65 CALM      30.18F
FOREST CITY *    N/A    N/A N/A N/A MISG        N/A
WEBSTER CITY * CLOUDY    70  63  78 VRB7      30.14S
IOWA FALLS *     N/A     70  60  70 SE3       30.17F
$$

IAZ007>011-017>019-026>030-037>042-050>054-066-262000-
   NORTHEAST IOWA

CITY           SKY/WX    TMP DP  RH WIND       PRES   REMARKS
CEDAR RAPIDS   CLOUDY    74  66  76 SE9       30.13F
CHARLES CITY * CLOUDY    70  57  64 CALM      30.18R
CLINTON *      MOSUNNY   74  64  71 NE9         N/A
DECORAH *      PTSUNNY   70  57  64 SE5       30.16F
DUBUQUE        CLOUDY    72  57  59 E7        30.16F
MONTICELLO *   CLOUDY    73  61  64 E8        30.14F
OELWEIN *      CLOUDY    68  61  77 CALM      30.18R
WATERLOO       CLOUDY    69  58  67 E5        30.15R
$$

IAZ064-065-067-068-078-262000-
   EAST CENTRAL IOWA

CITY           SKY/WX    TMP DP  RH WIND       PRES   REMARKS
DAVENPORT      CLOUDY    74  62  66 NE9       30.14F
IOWA CITY      CLOUDY    75  64  68 SE8       30.14F
MT. PLEASANT * MOSUNNY   81  66  60 SE12      30.13R HX  83
MUSCATINE *    CLOUDY    77  63  61 E10       30.13S
QUAD CITIES    CLOUDY    77  64  64 E7        30.13S
$$

IAZ062-063-075>077-085>089-095>099-262000-
   SOUTHEAST IOWA

CITY           SKY/WX    TMP DP  RH WIND       PRES   REMARKS
BURLINGTON     CLOUDY    77  67  71 SE10      30.12F
FAIRFIELD *    MOSUNNY   77  63  61 E10       30.11F
FORT MADISON * CLOUDY    79  68  69 E6        30.12F HX  81
KEOKUK *       CLOUDY    77  66  69 E10       30.11F
OSKALOOSA *      N/A     75  63  66 E7        30.12F
CENTERVILLE *    N/A     77  66  69 E12G17    30.11F
OTTUMWA        CLOUDY    77  62  59 SE12      30.11F
WASHINGTON *   MOSUNNY   75  64  69 SE8G15    30.14S
$$

ABBREVIATIONS USED IN REMARKS
   TC - TEMPERATURES IN CELSIUS
  WCI - WIND CHILL INDEX
   HX - HEAT INDEX
  VSB - VISIBILITY
$$




USA.gov is the U.S. government's official web portal to all federal, state and local government web resources and services.